Weather in Krutaya Gorka

Russia / Kurgan Oblast     55°23′53″N   63°15′47″E
temp.,
°C
wind,
m/s
gust,
m/s
humid.,
%
clouds,
%
prec.,
mm/h
press.,
hPa
HPBL,
m
10 april, sat
sat1023:00+1se2397100 0.0 103164
02:00+1sse2296100 0.0 103240
05:00+1sse239591 0.0 103348
08:00+1sse36100100 0.0 1035161
11:00+2s46100100 0.0 1036227
14:00+4sse46100100 0.0 1037328
17:00+5sse479395 0.0 1037317
20:00+2s379641 0.0 1038150
11 april, sun
sun1123:000s3996100 0.0 1039178
02:00+1s4109696 0.0 1038227
05:00+1ssw4119645 0.0 1038255
08:00+3ssw61191100 0.0 1038460
11:00+6ssw6118586 0.0 1038481
14:00+8ssw71179100 0.0 1037518
17:00+8ssw61278100 0.0 1036484
20:00+5ssw4128435 0.0 1036216
12 april, mon
mon1223:00+4ssw4128754 0.0 1035198
02:00+3sw4109127 0.0 1035165
05:00+3sw359052 0.0 103561
08:00+5wsw2387100 0.0 103582
11:00+11nw2476100 0.0 1036338
14:00+11nnw3382100 0.1 1036472
17:00+11nnw3485100 0.2 1036493
20:00+8n2393100 0.0 103766
13 april, tue
tue1323:00+7n238899 0.0 103842
02:00+6ne3382100 0.0 103830
05:00+5ene2287100 0.0 103915
08:00+6e1282100 0.0 103978
11:00+10se236573 0.0 1038472
14:00+14s235170 0.0 1037919
17:00+15ssw33505 0.0 10351006
20:00+11ssw33675 0.0 103425
14 april, wed
wed1423:00+9ssw347619 0.0 103455
02:00+8ssw3587100 0.0 103281
05:00+7sw36915 0.0 103296
08:00+9sw378722 0.0 1031200
11:00+14wsw346614 0.0 1030503
14:00+17wsw34535 0.0 1028992
17:00+18w45475 0.0 10261197
20:00+14wsw226430 0.0 102514